Flag for Germany Weather past 2 weeks in Homburg (Saar), Saarland, Germany

Now
55 °F

Broken clouds.


Feels Like: 55 °F
Forecast: 50 / 62 °F
Wind: 5 mph from Southwest

Location: Saarbruecken / Ensheim

Current Time: Apr 25, 2015 at 5:22:39 PM

Latest Report: Apr 25, 2015 at 4:50 PM


Visibility: N/A

Pressure: 29.83 "Hg

Humidity: 88%

Dew point: 52 °F

Location of Homburg (Saar)Location

Historic Weather in Homburg (Saar) — Graph

°F

Homburg (Saar) temperature yesterday

Maximum temperature yesterday: 68 °F (at 3:50 PM)
Minimum temperature yesterday: 39 °F (at 6:20 AM)
Average temperature yesterday: 55 °F

Past Weeks' High & Low Weather Summary

 TemperatureHumidityPressure
High75 °F (Apr 15, 2:50 PM)100% (Apr 12, 7:20 AM)30.45 "Hg (Apr 12, 7:20 AM)
Low36 °F (Apr 19, 4:50 AM)17% (Apr 10, 4:50 PM)29.83 "Hg (Apr 25, 3:20 AM)
Average55 °F53%30.16 "Hg
* Reported Apr 10 4:20 PM — Apr 25 4:20 PM, Homburg (Saar), Weather by CustomWeather, © 2015

Note: Actual official high and low records may vary slightly from our data, if they occured in-between our weather recording intervals... More about our weather records

Advertising

Homburg (Saar) weather history for previous 24 hours

 ConditionsComfort  
Time TempWeatherWind HumidityBarometerVisibility
4:20 PM
Sat, Apr 25
54 °FSprinkles. Broken clouds.7 mph88%29.83 "Hg5 mi
3:50 PM55 °FLight rain. Partly sunny.10 mph82%29.83 "Hg5 mi
3:20 PM57 °FLight rain. More clouds than sun.8 mph77%29.83 "HgN/A
2:50 PM57 °FMore clouds than sun.8 mph77%29.83 "HgN/A
2:20 PM55 °FLight rain. Mostly cloudy.8 mph77%29.83 "HgN/A
1:50 PM55 °FLight rain. More clouds than sun.9 mph82%29.86 "HgN/A
1:20 PM55 °FLight rain. Broken clouds.10 mph77%29.86 "HgN/A
12:50 PM57 °FLight rain. Broken clouds.9 mph72%29.86 "HgN/A
12:20 PM57 °FLight rain. Partly sunny.10 mph67%29.86 "HgN/A
11:50 AM57 °FPartly sunny.7 mph67%29.86 "HgN/A
11:20 AM57 °FBroken clouds.8 mph63%29.86 "HgN/A
10:50 AM55 °FBroken clouds.7 mph67%29.86 "HgN/A
10:20 AM54 °FLight rain. Mostly cloudy.3 mph72%29.86 "HgN/A
9:50 AM52 °FLight rain. Mostly cloudy.2 mph72%29.86 "HgN/A
9:20 AM52 °FLight rain. More clouds than sun.1 mph72%29.86 "HgN/A
8:50 AM50 °FLight rain. More clouds than sun.3 mph76%29.86 "HgN/A
8:20 AM52 °FLight rain. Broken clouds.No wind67%29.86 "HgN/A
7:50 AM52 °FLight rain. Clear.2 mph67%29.83 "HgN/A
7:20 AM52 °FLight rain. Clear.3 mph62%29.83 "HgN/A
6:50 AM52 °FLight rain. Clear.3 mph67%29.83 "HgN/A
6:20 AM52 °FLight rain. Clear.2 mph62%29.83 "HgN/A
5:20 AM54 °FPassing clouds.8 mph51%29.83 "HgN/A
4:50 AM54 °FClear.8 mph51%29.83 "Hg10 mi
4:20 AM52 °FClear.2 mph54%29.83 "Hg10 mi
3:50 AM52 °FClear.3 mph54%29.83 "Hg10 mi
3:20 AM52 °FClear.2 mph54%29.83 "Hg10 mi
2:50 AM52 °FClear.3 mph58%29.86 "Hg10 mi
2:20 AM52 °FClear.2 mph54%29.86 "Hg10 mi
1:50 AM52 °FClear.2 mph58%29.86 "Hg10 mi
1:20 AM50 °FClear.2 mph62%29.86 "Hg10 mi
12:50 AM52 °FClear.2 mph62%29.86 "Hg10 mi
12:20 AM50 °FClear.2 mph62%29.89 "Hg10 mi
11:50 PM
Fri, Apr 24
52 °FClear.2 mph62%29.89 "Hg10 mi
11:20 PM52 °FClear.3 mph58%29.89 "Hg10 mi
10:50 PM54 °FClear.2 mph51%29.89 "Hg10 mi
10:20 PM54 °FClear.1 mph54%29.89 "Hg10 mi
9:50 PM55 °FClear.1 mph44%29.89 "Hg10 mi
9:20 PM59 °FSunny.2 mph39%29.89 "Hg10 mi
8:50 PM59 °FSunny.8 mph36%29.89 "Hg10 mi
8:20 PM63 °FSunny.6 mph32%29.89 "Hg10 mi
7:50 PM64 °FSunny.6 mph32%29.89 "Hg10 mi
7:20 PM66 °FPassing clouds.8 mph30%29.89 "HgN/A
6:50 PM68 °FSunny.9 mph28%29.89 "Hg10 mi
6:20 PM66 °FSunny.10 mph28%29.89 "Hg10 mi
5:50 PM68 °FPassing clouds.10 mph30%29.89 "HgN/A
5:20 PM68 °FPassing clouds.7 mph28%29.89 "HgN/A
Weather by CustomWeather, © 2015

See weather overviewHow to use our weather pages